Date,TemperatureHighF,TemperatureAvgF,TemperatureLowF,DewpointHighF,DewpointAvgF,DewpointLowF,HumidityHigh,HumidityAvg,HumidityLow,PressureMaxIn,PressureMinIn,WindSpeedMaxMPH,WindSpeedAvgMPH,GustSpeedMaxMPH,PrecipitationSumIn
2013-1-1,49.1,42.4,31.2,45.9,40.6,23.6,98,93,72,30.20,29.99,11,1,19,0.27
2013-1-2,40.8,34.8,32.2,40.4,33.7,31.0,99,96,92,30.17,29.95,3,1,9,0.06
2013-1-3,34.5,30.7,24.0,32.5,29.0,22.9,97,93,81,30.32,30.14,4,1,9,0.00
2013-1-4,33.4,26.6,20.6,24.7,22.1,19.1,96,84,64,30.43,30.32,4,1,13,0.00
2013-1-5,44.9,33.1,27.1,30.9,24.7,17.1,89,73,33,30.48,30.30,2,1,6,0.00
2013-1-6,38.9,33.6,30.8,34.8,30.9,28.1,97,90,80,30.31,30.12,3,1,9,0.01
2013-1-7,45.9,33.4,25.1,30.0,26.6,23.1,94,78,44,30.46,30.26,3,1,10,0.00
2013-1-8,48.9,35.7,25.2,34.1,28.3,21.6,94,76,39,30.50,30.39,2,0,9,0.00
2013-1-9,56.2,42.9,31.7,51.2,41.1,31.2,99,94,79,30.52,30.42,4,0,7,0.00
2013-1-10,58.9,50.3,44.6,53.2,47.5,36.1,99,90,66,30.52,30.33,4,1,11,0.00
2013-1-11,59.7,48.7,42.4,54.6,46.5,36.3,99,92,67,30.34,30.10,9,1,20,0.16
2013-1-12,67.7,57.0,49.7,59.0,54.0,48.9,99,90,68,30.18,30.05,3,0,13,0.00
2013-1-13,66.0,57.8,51.7,56.5,53.1,49.1,94,85,62,30.08,29.98,4,1,18,0.00
2013-1-14,58.7,52.4,43.5,55.5,51.8,42.8,99,98,89,30.17,30.00,4,0,10,1.70
2013-1-15,52.5,46.3,43.0,50.8,45.7,42.5,99,98,94,30.15,29.98,3,0,12,1.20
2013-1-16,60.4,51.1,47.1,52.8,49.5,46.6,99,95,64,30.03,29.92,3,0,10,0.30
2013-1-17,47.2,39.3,29.5,46.9,38.5,27.8,99,97,93,30.22,29.84,3,1,9,1.50
2013-1-18,36.2,27.8,23.1,30.3,25.6,21.6,99,92,63,30.57,30.21,3,1,12,0.00
2013-1-19,40.6,30.5,21.7,36.1,28.7,21.0,98,93,77,30.54,30.29,2,0,3,0.01
2013-1-20,44.8,33.3,26.9,33.6,29.8,26.4,99,88,60,30.24,30.13,11,2,11,0.01
2013-1-21,41.7,31.5,23.6,31.8,22.1,7.0,98,71,44,30.15,29.99,5,2,15,0.00
2013-1-22,23.6,18.7,13.6,8.9,1.7,-3.4,62,48,33,30.31,30.00,5,3,17,0.00
2013-1-23,34.2,24.2,16.9,27.4,12.2,-2.1,85,61,43,30.41,30.14,4,1,11,0.00
2013-1-24,37.4,25.9,15.6,29.6,14.2,3.2,80,62,40,30.46,30.07,7,3,20,0.00
2013-1-25,34.4,22.7,15.5,33.1,17.7,3.5,97,82,57,30.47,30.15,5,2,15,0.00
2013-1-26,34.2,30.1,25.0,31.8,27.6,23.8,98,91,77,30.41,30.17,4,2,13,0.00
2013-1-27,34.1,27.8,20.2,30.1,24.6,19.2,97,88,75,30.57,30.41,4,1,10,0.00
2013-1-28,59.2,39.9,29.8,44.2,36.1,29.1,98,87,55,30.49,30.27,3,0,8,0.29
2013-1-29,65.1,48.3,35.8,53.0,43.9,35.0,99,87,50,30.29,30.01,3,0,8,0.00
2013-1-30,60.2,54.3,41.0,57.8,52.4,39.0,99,94,84,30.01,29.41,5,2,25,3.00
2013-1-31,41.6,28.6,25.2,39.5,24.2,19.6,95,84,71,30.02,29.40,5,2,18,0.04
2013-2-1,34.7,19.2,11.7,29.2,12.5,5.7,95,75,60,30.43,29.94,5,2,20,0.00
2013-2-2,33.4,22.2,9.5,28.3,17.7,7.6,97,84,51,30.45,30.10,4,0,11,0.00
2013-2-3,32.4,28.4,23.8,29.2,25.3,19.8,95,88,77,30.10,29.95,5,2,17,0.00
2013-2-4,46.6,28.7,16.0,32.1,22.3,14.1,94,79,44,30.21,30.04,4,1,12,0.16
2013-2-5,42.1,34.6,29.5,36.8,31.0,26.4,95,87,71,30.05,29.98,3,0,9,0.05
2013-2-6,47.3,36.2,28.9,33.2,29.0,24.4,96,77,42,30.31,30.03,4,1,10,0.01
2013-2-7,42.4,35.7,29.1,37.9,32.0,25.4,98,87,72,30.32,30.06,2,0,11,0.47
2013-2-8,43.9,36.7,29.6,41.4,33.9,25.0,99,90,59,30.16,29.92,4,2,18,0.09
2013-2-9,46.2,32.4,24.6,27.5,22.1,12.7,86,69,28,30.40,30.15,4,2,16,0.00
2013-2-10,45.9,38.7,32.2,42.0,26.5,18.8,98,64,35,30.43,30.14,6,2,16,0.08
2013-2-11,58.1,48.6,40.9,51.3,42.2,29.3,98,79,50,30.15,29.98,4,2,17,0.01
2013-2-12,49.7,39.5,31.7,34.4,25.5,14.9,96,60,25,30.14,29.95,4,1,14,0.07
2013-2-13,45.2,37.1,31.5,40.8,35.5,28.9,97,94,82,29.96,29.63,3,1,14,0.37
2013-2-14,46.6,34.4,26.2,32.1,27.4,23.5,91,77,46,30.08,29.88,5,1,13,0.00
2013-2-15,52.0,33.9,25.8,38.9,30.1,25.1,98,88,39,30.15,30.00,13,2,13,0.09
2013-2-16,29.8,25.6,18.8,27.8,21.4,11.9,92,84,66,30.06,29.88,3,1,12,0.00
2013-2-17,26.9,20.5,14.9,13.7,10.3,4.8,79,65,47,30.33,30.00,5,2,20,0.00
2013-2-18,19.0,18.8,18.7,13.7,12.9,11.9,80,77,75,30.34,30.33,0,0,1,0.00
2013-2-19,45.7,37.8,28.7,39.5,26.8,12.1,92,65,46,30.18,29.89,19,3,21,0.05
2013-2-20,37.4,29.0,23.2,16.1,12.3,7.4,72,51,32,30.22,30.00,5,2,18,0.00
2013-2-21,52.7,34.9,19.4,32.1,16.3,0.7,94,52,13,30.30,30.17,5,1,11,0.15
2013-2-22,43.1,35.2,31.2,41.2,33.8,30.2,97,95,88,30.28,30.10,5,1,16,0.43
2013-2-23,50.9,44.7,35.4,47.5,42.4,34.6,99,92,86,30.11,29.91,3,2,10,0.16
2013-2-24,50.6,50.6,50.6,46.6,46.6,46.6,86,86,86,29.91,29.91,3,3,10,0.16
2013-2-25,50.6,50.6,50.6,46.6,46.6,46.6,86,86,86,29.91,29.91,3,3,10,0.16
2013-2-26,50.6,42.8,33.3,46.6,40.5,32.1,99,92,86,29.91,29.60,4,2,10,2.00
2013-2-27,43.7,36.2,32.8,36.3,31.9,27.7,97,85,69,29.84,29.67,5,2,15,0.01
2013-2-28,33.6,29.0,26.5,30.0,25.5,23.5,94,86,78,29.93,29.72,4,2,14,0.00
2013-3-1,34.2,29.3,26.5,29.3,27.2,24.9,95,92,80,29.98,29.91,3,1,10,0.00
2013-3-2,32.0,27.6,20.6,28.3,24.5,16.8,95,88,77,29.99,29.89,3,1,10,0.00
2013-3-3,26.1,21.7,18.4,19.4,16.8,14.5,91,81,66,30.09,29.98,4,2,15,0.00
2013-3-4,41.1,28.7,20.0,27.2,18.4,12.3,86,67,35,30.24,30.09,5,2,15,0.06
2013-3-5,39.9,34.4,29.0,39.4,32.4,24.9,98,92,81,30.15,29.67,4,0,15,1.11
2013-3-6,30.8,24.9,21.7,28.6,22.9,20.1,95,92,87,29.90,29.67,5,3,14,0.00
2013-3-7,31.7,27.8,24.4,26.6,24.2,22.2,95,86,80,30.39,30.20,10,1,13,0.00
2013-3-8,39.4,29.9,24.3,29.6,24.7,20.7,95,82,59,30.44,30.33,4,1,13,0.06
2013-3-9,57.9,39.2,22.4,33.5,27.6,21.4,97,68,27,30.43,30.30,4,1,10,0.00
2013-3-10,57.4,47.4,37.5,35.8,32.6,30.0,79,58,37,30.32,30.14,6,2,18,0.00
2013-3-11,47.9,45.5,42.8,47.3,42.2,33.1,98,89,58,30.15,29.85,5,2,16,0.56
2013-3-12,48.9,39.0,30.2,48.4,37.3,29.1,99,94,78,30.06,29.78,4,1,12,0.55
2013-3-13,36.2,30.6,24.5,31.5,24.4,15.7,96,79,55,30.20,30.04,4,1,13,0.02
2013-3-14,37.1,27.5,20.2,22.3,16.1,12.7,79,63,39,30.35,30.20,5,2,17,0.00
2013-3-15,59.1,41.9,26.0,39.0,29.7,18.4,82,64,37,30.28,29.97,15,5,15,0.00
2013-3-16,69.2,55.6,44.4,51.5,46.4,39.9,94,75,42,29.96,29.72,17,4,17,0.04
2013-3-17,63.6,51.8,38.9,50.5,46.8,37.9,96,84,56,30.02,29.84,4,1,14,0.00
2013-3-18,54.1,37.7,32.9,47.7,36.0,31.7,98,94,74,30.05,29.86,4,1,12,0.38
2013-3-19,49.6,38.8,30.1,43.3,26.7,11.9,99,64,28,30.08,29.88,21,3,21,0.08
2013-3-20,46.9,34.6,25.2,28.8,16.7,7.5,94,52,21,30.12,29.88,5,1,14,0.00
2013-3-21,28.0,22.9,17.9,24.8,13.1,7.6,90,67,49,30.05,29.80,5,2,21,0.00
2013-3-22,43.2,28.1,14.6,21.8,14.3,10.5,84,59,31,30.15,30.04,5,1,14,0.01
2013-3-23,48.5,38.6,32.8,38.9,32.2,20.7,92,78,61,30.12,29.92,4,0,8,0.00
2013-3-24,40.5,37.2,33.8,38.9,35.2,32.8,97,92,76,29.93,29.52,2,0,15,1.03
2013-3-27,35.7,29.1,0.0,36.5,22.7,20.5,89,73,60,30.28,0.00,4,2,15,0.10
2013-3-28,41.6,29.8,20.2,28.8,22.7,17.9,92,76,48,30.39,30.27,5,1,14,0.01
2013-3-29,48.7,34.7,21.0,32.9,25.1,17.9,96,72,32,30.42,30.29,5,1,13,0.01
2013-3-30,56.9,43.5,30.2,40.1,33.9,29.1,97,73,37,30.32,30.09,5,1,10,0.00
2013-3-31,56.4,47.9,42.2,49.3,44.8,38.4,98,90,69,30.09,29.83,4,1,14,0.52
2013-4-1,53.4,45.0,35.7,45.8,40.1,32.4,99,84,61,30.00,29.87,4,1,14,0.00
2013-4-2,47.4,38.4,28.0,33.0,24.6,16.6,91,60,32,30.19,29.99,6,2,16,0.00
2013-4-3,52.7,39.0,26.4,28.2,20.4,13.9,77,50,24,30.32,30.19,5,1,13,0.00
2013-4-4,38.2,34.3,31.4,33.9,26.1,12.2,98,75,39,30.30,30.01,2,0,7,0.42
2013-4-5,50.7,39.7,34.2,39.9,36.2,33.4,98,88,60,30.13,29.99,5,1,16,0.28
2013-4-6,60.2,45.8,30.6,39.2,34.0,29.3,97,68,35,30.27,30.13,6,1,17,0.00
2013-4-7,64.8,51.7,39.1,45.1,39.5,33.8,86,65,42,30.20,30.07,6,1,17,0.00
2013-4-8,69.4,58.3,40.4,51.3,47.1,38.8,94,68,44,30.16,30.04,12,2,15,0.00
2013-4-9,76.8,60.9,43.9,53.7,49.0,42.6,96,69,38,30.19,30.05,6,1,19,0.00
2013-4-10,79.8,64.3,49.6,56.7,52.3,47.9,96,68,37,30.08,29.92,4,1,14,0.00
2013-4-11,73.2,63.1,53.3,59.9,53.8,50.1,96,73,50,29.93,29.65,6,2,21,0.30
2013-4-12,62.2,54.0,42.8,59.8,47.4,38.9,97,80,45,29.84,29.57,18,2,18,1.63
2013-4-13,62.3,48.4,38.1,39.9,37.7,33.5,92,68,37,30.08,29.83,16,3,16,0.00
2013-4-14,66.8,52.7,35.9,48.2,38.3,33.8,94,63,32,30.12,29.98,7,2,17,0.01
2013-4-15,55.9,51.9,48.8,52.0,49.8,47.3,97,92,85,30.20,29.97,3,1,9,0.10
2013-4-16,75.3,61.7,49.7,57.8,53.9,49.1,99,78,46,30.27,30.16,5,1,13,0.00
2013-4-17,67.3,58.9,54.9,60.6,56.1,53.6,98,91,65,30.24,30.09,3,0,8,0.36
2013-4-18,69.8,62.1,55.2,59.7,56.3,52.6,98,82,56,30.11,29.90,7,2,23,0.11
2013-4-19,63.9,55.8,40.1,60.1,53.1,36.0,96,91,79,29.90,29.67,5,2,24,0.87
2013-4-20,51.4,41.2,31.7,37.1,30.9,27.2,89,69,42,30.22,29.87,6,3,16,0.00
2013-4-21,43.4,33.2,30.4,31.7,29.8,28.7,95,88,56,30.49,30.34,8,1,8,0.00
2013-4-24,62.9,54.8,46.3,55.4,52.5,44.8,96,92,70,30.07,29.97,4,1,10,0.09
2013-4-25,46.2,40.3,36.4,44.7,38.1,33.6,96,92,75,30.23,30.07,3,1,12,0.01
2013-4-26,62.1,49.2,32.8,41.9,34.5,30.3,91,61,34,30.45,30.33,14,5,14,0.00
2013-4-27,55.7,50.4,46.7,49.0,45.1,39.7,95,83,64,30.39,30.23,9,3,9,0.05
2013-4-28,51.4,49.2,45.3,50.3,47.7,38.8,98,95,69,30.23,30.01,10,1,10,1.05
2013-4-29,66.0,55.5,48.0,55.3,51.2,47.1,99,87,54,30.06,29.95,4,0,9,0.23
2013-4-30,69.0,58.7,54.1,58.0,54.6,53.2,98,87,60,30.16,29.98,5,1,14,0.15
2013-5-1,61.0,55.3,51.5,53.6,50.8,48.6,93,85,68,30.27,30.14,4,1,12,0.00
2013-5-2,59.7,52.5,48.6,55.4,50.6,47.8,98,93,83,30.30,30.21,3,1,12,0.27
2013-5-3,57.0,52.4,47.8,49.4,46.5,42.5,95,81,63,30.25,30.11,16,9,16,0.00
2013-5-4,51.8,46.2,41.7,44.9,41.7,35.9,95,85,74,30.12,30.02,19,10,19,0.03
2013-5-5,50.4,44.1,40.5,48.7,42.8,38.9,97,95,91,30.06,29.88,15,2,18,3.27
2013-5-6,60.7,51.0,42.6,53.0,48.2,41.8,98,91,60,29.91,29.82,21,1,21,2.00
2013-5-7,59.7,47.7,42.1,51.1,45.8,41.6,99,93,68,29.97,29.88,3,0,9,0.25
2013-5-8,62.7,52.7,46.9,56.9,50.9,46.3,99,94,76,30.05,29.93,2,0,8,0.16
2013-5-9,71.3,57.6,46.9,56.9,51.8,46.6,99,83,48,30.11,30.01,5,1,12,0.00
2013-5-10,74.3,57.4,45.4,60.7,53.1,44.9,99,88,53,30.11,29.96,6,1,18,0.67
2013-5-11,64.3,58.0,53.5,60.3,56.2,51.5,99,94,80,29.97,29.81,2,0,10,0.08
2013-5-12,56.2,51.2,46.2,52.2,43.0,31.3,98,76,41,29.98,29.86,4,2,17,0.00
2013-5-13,55.7,48.5,34.1,36.9,31.3,26.1,91,54,34,30.22,30.06,11,2,17,0.00
2013-5-14,59.2,39.4,31.7,39.3,33.3,30.1,96,81,41,30.28,30.21,3,0,11,0.00
2013-5-15,80.8,70.2,49.8,58.8,53.9,46.1,90,58,36,30.09,29.96,9,2,13,0.00
2013-5-16,71.7,62.2,53.0,56.3,52.1,48.4,88,71,48,30.04,29.95,3,1,13,0.00
2013-5-17,72.3,58.8,47.9,64.5,54.3,46.3,97,86,58,30.10,30.02,2,0,9,0.18
2013-5-18,62.6,59.9,56.6,60.3,59.0,55.9,99,97,92,30.10,30.04,6,1,6,0.36
2013-5-19,70.0,62.9,58.9,64.6,60.9,58.6,99,93,79,30.08,30.01,4,1,11,0.03
2013-5-20,74.5,65.9,54.9,67.3,62.7,54.6,99,90,74,30.13,30.01,6,0,8,0.21
2013-5-21,82.7,65.3,56.6,66.4,60.6,56.3,99,87,47,30.05,29.90,11,1,11,0.00
2013-5-22,77.2,63.3,56.2,68.9,60.2,55.7,99,90,66,29.98,29.86,14,3,14,0.45
2013-5-23,73.8,65.6,55.4,62.8,58.6,51.6,99,80,49,29.94,29.83,3,1,11,0.13
2013-5-24,59.3,51.8,42.0,54.3,42.4,36.8,96,72,47,30.23,29.86,9,2,15,0.10
2013-5-25,65.3,51.7,37.8,47.0,39.8,29.0,96,68,28,30.35,30.22,4,1,14,0.00
2013-5-26,67.8,55.8,46.1,51.5,45.1,38.8,91,69,41,30.28,30.19,4,1,12,0.00
2013-5-27,73.8,59.9,44.8,58.0,52.2,43.9,98,78,54,30.27,30.13,4,1,13,0.00
2013-5-28,75.8,65.4,55.6,62.6,58.1,54.1,96,79,54,30.18,30.10,5,1,16,0.00
2013-5-29,80.3,66.8,54.1,63.3,58.3,53.2,98,77,43,30.19,30.11,3,1,13,0.00
2013-5-30,78.8,66.7,54.4,63.2,58.6,53.6,98,77,51,30.23,30.13,4,1,14,0.00
2013-5-31,78.0,67.8,56.1,66.0,59.4,54.9,98,76,53,30.18,30.07,4,1,16,0.00
2013-6-1,78.8,68.5,59.7,65.2,60.8,58.4,97,78,55,30.09,29.97,5,1,18,0.00
2013-6-2,70.8,65.8,62.0,65.6,62.2,59.7,95,89,77,30.00,29.90,2,0,14,0.04
2013-6-3,74.0,64.7,57.7,64.8,60.4,56.3,99,87,61,29.97,29.85,12,3,12,0.00
2013-6-4,72.2,60.8,55.7,61.3,57.7,54.9,98,90,67,30.09,29.96,10,2,10,0.00
2013-6-5,73.2,64.1,55.4,65.0,60.6,54.6,98,89,71,30.09,29.96,4,1,12,0.39
2013-6-6,73.7,67.5,61.3,67.7,64.3,60.7,98,90,76,29.97,29.74,3,1,10,0.30
2013-6-7,71.8,64.3,59.9,67.0,62.7,59.0,98,95,81,29.82,29.65,2,0,8,0.67
2013-6-8,74.7,65.2,57.0,65.8,60.8,56.4,99,87,61,30.07,29.81,2,0,8,0.39
2013-6-9,77.0,65.7,57.6,66.5,62.2,56.8,99,90,64,30.14,30.02,4,0,13,0.57
2013-6-10,74.8,66.9,59.4,67.8,62.8,53.7,98,88,51,30.02,29.84,3,0,13,0.55
2013-6-11,74.6,64.4,57.2,65.8,60.4,56.6,99,88,63,30.00,29.89,2,0,9,0.06
2013-6-12,83.7,70.3,58.2,72.9,65.7,57.4,99,86,62,30.01,29.90,3,0,11,0.00
2013-6-13,82.8,69.0,60.2,69.4,63.9,54.7,98,85,57,29.90,29.66,12,1,16,0.59
2013-6-14,72.0,61.9,53.4,58.8,54.9,51.7,97,79,52,30.07,29.78,3,1,13,0.00
2013-6-15,74.7,57.0,46.6,59.3,51.9,46.1,99,85,51,30.15,30.06,4,0,8,0.00
2013-6-16,76.6,66.1,54.6,66.3,62.4,53.9,98,88,65,30.12,30.01,7,1,7,0.00
2013-6-17,75.2,66.8,62.3,68.6,64.5,61.5,98,93,74,30.03,29.92,1,0,5,0.28
2013-6-18,73.7,64.6,59.0,68.5,63.1,58.4,99,95,78,29.94,29.79,4,0,6,0.42
2013-6-19,77.3,63.5,54.7,65.7,59.8,54.4,99,89,56,30.13,29.92,3,0,6,0.01
2013-6-20,68.3,58.8,55.7,63.4,57.9,55.1,99,97,81,30.20,30.12,3,0,7,0.00
2013-6-21,80.3,67.1,58.2,63.7,60.3,57.5,98,81,48,30.24,30.16,10,3,10,0.00
2013-6-22,82.0,66.3,52.4,64.4,57.9,51.9,99,78,43,30.22,30.09,3,0,9,0.00
2013-6-23,78.8,67.1,56.2,68.0,61.2,55.6,99,83,54,30.19,30.10,2,0,7,0.00
2013-6-24,78.8,66.8,58.6,71.3,63.7,58.0,99,91,72,30.18,30.07,2,0,6,0.66
2013-6-25,80.2,68.0,60.2,70.0,64.8,59.6,99,90,64,30.13,29.99,3,0,9,0.00
2013-6-26,79.2,67.8,60.4,72.3,65.3,59.8,99,92,74,30.03,29.88,5,0,7,0.24
2013-6-27,75.0,69.8,61.0,70.4,67.2,60.2,98,92,83,29.91,29.73,11,1,11,0.37
2013-6-28,79.5,68.8,61.7,71.3,65.7,60.9,99,91,65,29.78,29.61,3,0,12,0.33
2013-6-29,77.5,66.4,58.1,66.0,61.0,54.4,99,84,46,29.71,29.61,2,0,7,0.00
2013-6-30,78.5,65.8,54.7,66.5,60.3,54.1,99,84,58,29.80,29.69,4,0,14,0.15
2013-7-1,76.4,68.8,61.2,67.3,64.4,60.6,99,87,70,29.93,29.78,5,1,13,3.21
2013-7-2,76.5,67.5,62.0,67.8,64.9,61.4,99,92,65,30.10,29.92,10,1,10,0.58
2013-7-3,71.8,64.7,59.5,69.5,64.0,58.9,99,98,90,30.20,30.08,1,0,6,3.85
2013-7-4,73.8,65.3,59.4,69.6,64.3,58.8,99,97,85,30.22,30.15,5,0,12,2.69
2013-7-5,78.8,70.8,63.6,70.9,66.8,63.3,99,88,72,30.22,30.15,5,1,13,0.19
2013-7-6,75.0,70.4,64.7,70.3,67.0,64.1,99,89,77,30.19,30.09,7,1,12,2.10
2013-7-7,78.3,70.9,64.5,71.7,68.2,64.2,99,92,76,30.14,30.06,3,0,12,0.78
2013-7-8,79.3,66.6,63.3,68.6,64.3,62.4,99,93,61,30.17,30.09,6,1,6,0.00
2013-7-9,81.9,66.4,61.1,70.9,64.5,60.5,99,94,59,30.15,30.04,8,0,8,0.00
2013-7-10,79.6,68.5,61.8,71.5,66.7,61.2,99,94,75,30.09,29.93,9,1,9,0.73
2013-7-11,74.0,68.0,63.9,70.3,66.2,63.5,99,94,81,29.94,29.86,1,0,7,0.01
2013-7-12,79.3,69.0,62.3,67.1,63.6,58.8,99,85,53,29.92,29.87,3,0,8,0.00
2013-7-13,72.3,67.5,60.9,66.4,64.2,60.2,98,89,78,30.11,29.98,5,0,9,0.11
2013-7-14,75.7,68.4,65.4,69.3,66.1,64.2,98,93,76,30.26,30.08,3,1,14,1.60
2013-7-15,81.0,70.9,63.7,69.0,65.7,62.6,97,85,59,30.31,30.24,3,1,14,0.00
2013-7-16,88.0,69.4,58.1,71.7,64.3,57.8,99,86,45,30.33,30.22,3,0,6,0.07
2013-7-17,83.3,69.3,62.5,73.3,66.7,62.1,99,92,66,30.29,30.14,8,0,8,0.56
2013-7-18,85.2,70.9,62.0,73.3,67.2,61.7,99,89,59,30.20,30.05,8,2,8,0.01
2013-7-19,79.4,70.9,64.5,74.9,69.1,63.9,99,94,75,30.10,29.97,10,0,10,1.08
2013-7-20,77.1,69.2,65.0,70.9,67.6,64.7,99,95,80,30.02,29.90,2,0,9,0.04
2013-7-21,78.8,69.2,63.7,70.9,66.8,63.1,99,92,71,29.99,29.90,2,0,8,0.01
2013-7-22,75.7,68.6,62.7,71.7,66.6,62.2,99,94,80,29.96,29.80,2,0,5,0.21
2013-7-23,67.9,65.4,64.2,65.9,64.7,63.9,99,98,93,29.84,29.79,5,2,5,0.05
2013-7-24,79.4,69.8,63.3,70.4,65.9,62.4,99,88,67,29.84,29.77,8,3,8,0.00
2013-7-25,78.8,65.2,58.6,65.4,60.7,55.6,99,87,45,30.03,29.84,8,1,8,0.00
2013-7-26,77.7,65.7,54.7,68.1,61.4,54.1,99,87,67,30.07,29.99,4,1,14,0.01
2013-7-27,72.4,66.9,63.0,68.7,65.1,62.3,98,94,84,30.02,29.87,2,0,3,1.52
2013-7-28,76.5,65.7,58.4,68.9,62.8,57.8,99,91,63,30.03,29.90,2,0,6,0.32
2013-7-29,74.3,61.8,53.0,62.4,56.8,52.7,99,86,57,30.22,30.03,3,0,10,0.00
2013-7-30,73.1,63.0,51.1,66.0,59.0,50.7,99,88,65,30.25,30.16,5,0,12,0.00
2013-7-31,68.5,64.1,60.7,66.5,62.8,60.1,99,96,88,30.18,29.97,1,0,6,0.26
2013-8-1,77.5,68.1,62.1,69.6,65.2,61.5,99,91,67,29.97,29.89,2,0,10,0.05
2013-8-2,77.2,66.7,58.3,67.2,61.9,57.9,99,86,56,30.04,29.94,2,0,7,0.00
2013-8-3,78.0,67.0,59.1,69.2,63.0,58.5,99,88,61,30.03,29.95,2,0,10,0.00
2013-8-4,75.9,67.8,59.6,66.4,62.6,57.3,99,85,56,30.04,29.93,3,1,10,0.38
2013-8-5,77.5,65.6,55.2,67.4,61.2,54.6,99,87,65,30.06,29.96,5,1,11,0.00
2013-8-6,76.8,68.2,61.0,68.6,64.4,60.4,99,89,64,30.01,29.93,2,0,10,0.01
2013-8-7,71.8,66.9,63.5,68.5,65.6,62.9,99,96,86,30.03,29.98,3,0,10,0.17
2013-8-8,77.5,69.0,63.1,72.3,67.4,62.8,99,95,78,30.03,29.97,3,0,8,0.25
2013-8-9,80.8,70.6,64.7,74.2,68.3,64.3,99,93,74,30.05,29.97,2,0,9,0.01
2013-8-10,79.2,69.8,63.3,73.3,67.6,62.8,99,93,76,30.11,30.03,7,0,9,0.39
2013-8-11,80.8,68.9,61.3,73.1,66.6,61.0,99,93,71,30.13,30.03,2,0,7,0.10
2013-8-12,68.5,66.6,65.4,68.0,66.3,65.0,99,99,98,30.08,30.04,1,0,4,0.01
2013-8-13,73.7,65.7,63.0,70.4,64.5,62.1,99,96,86,29.95,29.80,9,1,9,0.27
2013-8-14,70.8,62.4,53.1,62.6,57.9,52.3,99,86,61,30.08,29.88,2,0,9,0.01
2013-8-15,66.5,56.7,50.2,59.0,53.8,49.7,99,90,72,30.16,30.08,3,0,12,0.00
2013-8-16,73.7,59.5,49.2,61.7,54.9,48.8,99,86,57,30.17,30.09,4,0,12,0.00
2013-8-17,65.4,58.9,53.3,60.9,56.7,51.7,98,92,77,30.18,30.12,8,0,8,0.01
2013-8-18,72.5,64.3,59.1,68.5,62.5,58.6,99,94,80,30.20,30.12,3,0,7,0.04
2013-8-19,70.9,65.6,61.4,67.9,64.3,61.1,99,96,84,30.17,30.07,3,0,5,0.30
2013-8-20,76.7,65.9,58.8,69.7,64.2,58.5,100,95,68,30.17,30.10,4,0,12,0.03
2013-8-21,76.3,66.7,60.9,70.2,65.1,60.6,99,95,76,30.22,30.09,2,0,5,0.01
2013-8-22,77.7,68.2,61.3,69.8,64.8,60.9,99,90,67,30.16,30.01,2,0,8,0.00
2013-8-23,75.0,66.4,60.4,69.5,64.5,60.1,100,94,78,30.08,29.97,2,0,9,0.01
2013-8-24,75.8,65.0,54.6,62.7,57.9,50.4,99,81,44,30.31,30.08,3,0,10,0.01
2013-8-25,73.7,60.9,50.9,61.8,55.5,50.6,99,84,54,30.39,30.29,3,0,9,0.00
2013-8-26,75.9,61.9,49.7,65.6,57.9,49.4,99,88,62,30.34,30.15,3,0,11,0.00
2013-8-27,75.7,65.2,55.8,69.4,62.5,55.5,99,91,74,30.17,30.03,2,0,12,0.00
2013-8-28,77.7,68.7,62.1,71.0,66.4,61.6,99,93,77,30.06,29.92,2,0,8,0.00
2013-8-29,82.2,71.6,65.8,71.0,67.7,65.1,99,88,63,29.98,29.89,2,0,11,0.08
2013-8-30,78.6,69.0,65.2,70.5,66.7,64.6,99,93,73,30.01,29.91,4,0,11,0.23
2013-8-31,77.7,68.8,63.6,72.4,67.0,63.3,99,94,78,29.94,29.85,2,0,6,0.10
2013-9-1,77.5,64.9,62.2,70.4,64.2,61.9,99,98,76,29.90,29.80,9,0,9,0.67
2013-9-2,75.5,70.3,62.0,70.1,67.0,61.7,100,90,79,29.91,29.81,3,0,7,0.00
2013-9-3,74.9,66.0,59.2,67.4,63.5,58.1,99,92,70,30.00,29.80,2,0,11,0.05
2013-9-4,76.5,62.8,52.0,65.8,58.8,51.6,99,88,60,30.15,30.00,2,0,7,0.01
2013-9-5,75.4,61.9,52.5,64.4,57.5,52.0,99,87,53,30.18,30.10,2,0,8,0.00
2013-9-6,75.5,62.4,51.9,65.7,58.2,51.6,99,88,55,30.20,30.08,3,0,7,0.01
2013-9-7,75.2,62.6,52.4,64.6,58.9,52.1,99,89,61,30.13,30.01,2,0,9,0.00
2013-9-8,76.3,65.8,57.0,67.9,62.5,56.7,99,90,62,30.03,29.95,2,0,8,0.00
2013-9-9,78.3,66.4,57.2,68.9,62.8,56.9,99,89,68,30.15,30.03,4,0,12,0.01
2013-9-10,80.5,67.1,57.9,70.3,63.7,57.6,99,90,60,30.23,30.14,4,0,8,0.06
2013-9-11,79.8,67.9,59.3,70.5,64.4,59.0,99,90,67,30.23,30.08,2,0,9,0.17
2013-9-12,75.2,65.4,62.4,69.9,64.5,62.1,99,97,82,30.08,29.99,2,0,8,0.01
2013-9-13,67.7,61.0,50.8,61.8,56.7,48.9,99,87,61,29.94,29.80,12,4,12,0.01
2013-9-14,67.2,57.2,42.3,56.9,52.2,41.8,99,85,58,30.15,29.94,12,1,12,0.00
2013-9-15,69.7,58.4,48.5,60.9,54.7,48.2,99,89,66,30.22,30.13,4,0,10,0.00
2013-9-16,70.3,61.0,49.3,62.4,57.2,49.0,99,88,68,30.17,30.12,2,0,7,0.01
2013-9-17,62.3,56.9,54.1,56.6,53.3,50.3,98,88,69,30.30,30.19,12,2,12,0.00
2013-9-18,64.8,58.6,52.1,59.7,55.4,49.7,98,89,76,30.28,30.17,6,1,11,0.04
2013-9-19,67.0,61.1,57.8,64.5,59.9,57.1,99,96,89,30.19,30.09,1,0,5,0.01
2013-9-20,73.7,63.5,55.9,66.4,61.2,55.6,100,93,71,30.10,29.91,4,0,7,0.00
2013-9-21,65.0,61.1,55.7,63.8,60.1,55.4,99,97,89,29.92,29.69,2,0,14,0.57
2013-9-22,63.7,56.1,48.9,56.7,52.9,48.6,100,89,69,29.95,29.75,3,0,8,0.01
2013-9-23,67.2,52.2,43.4,58.8,50.2,43.1,100,94,70,30.08,29.94,12,0,12,0.00
2013-9-24,69.8,56.3,44.7,61.6,53.2,44.3,100,90,65,30.11,29.94,2,0,9,0.01
2013-9-25,60.6,56.3,52.5,59.4,55.6,52.1,99,98,92,29.96,29.84,1,0,8,0.32
2013-9-26,66.5,56.8,49.4,59.1,53.9,48.8,99,91,64,30.07,29.90,3,0,9,0.00
2013-9-27,68.7,55.9,45.0,61.1,52.7,44.7,100,90,63,30.21,30.07,2,0,7,0.00
2013-9-28,65.0,56.8,49.5,57.5,53.1,48.6,99,88,68,30.25,30.15,4,0,8,0.00
2013-9-29,65.8,53.9,47.6,56.4,50.2,46.8,97,88,69,30.17,30.07,3,0,7,0.00
2013-9-30,65.7,57.7,51.4,58.5,54.9,50.9,98,91,74,30.08,30.00,8,1,8,0.00
2013-10-1,68.9,57.9,46.4,59.1,54.7,46.1,99,90,61,30.17,30.08,9,1,9,0.00
2013-10-2,69.9,56.9,46.6,61.0,53.9,46.3,99,91,63,30.22,30.11,2,0,6,0.01
2013-10-3,71.7,59.3,50.6,63.6,56.7,50.3,99,92,66,30.17,30.09,2,0,7,0.00
2013-10-4,72.7,60.1,50.5,63.9,57.2,50.2,100,91,64,30.19,30.10,2,0,8,0.00
2013-10-5,75.7,61.3,51.3,64.9,58.1,51.0,99,90,64,30.18,30.05,4,0,9,0.01
2013-10-6,73.1,64.2,56.9,64.5,60.2,56.6,100,88,70,30.07,29.85,5,1,15,0.00
2013-10-7,65.7,54.7,46.1,61.6,52.6,45.4,99,93,79,30.06,29.77,7,0,7,1.10
2013-10-8,62.9,49.1,38.5,52.1,44.7,38.1,99,86,58,30.26,30.05,3,0,10,0.01
2013-10-9,65.2,49.7,37.9,53.9,44.0,37.4,99,83,48,30.28,30.16,2,0,7,0.00
2013-10-10,62.7,49.9,37.8,53.5,45.9,37.5,99,87,58,30.19,30.07,3,0,9,0.00
2013-10-11,66.1,55.5,47.8,55.0,50.4,47.3,99,85,53,30.08,29.97,3,0,13,0.01
2013-10-12,62.9,57.9,54.2,57.9,55.1,51.8,98,91,82,30.11,30.00,3,0,9,0.00
2013-10-13,64.7,58.5,54.5,62.2,57.5,53.8,99,97,88,30.23,30.11,2,0,4,0.05
2013-10-14,64.7,58.2,54.1,58.3,56.2,53.7,99,93,77,30.24,30.15,3,0,7,0.00
2013-10-15,66.0,57.0,51.6,57.6,53.5,50.3,97,89,70,30.20,30.05,5,1,10,0.00
2013-10-16,66.9,56.8,47.1,56.9,52.6,46.6,99,87,67,30.08,29.95,3,0,6,0.00
2013-10-17,68.8,58.7,51.8,63.7,56.9,50.7,98,94,76,29.98,29.80,3,0,12,0.07
2013-10-18,62.9,53.2,47.5,53.1,48.2,41.8,96,85,54,30.02,29.92,3,0,9,0.00
2013-10-19,56.1,51.9,50.6,52.3,50.8,49.8,98,96,86,29.97,29.89,1,0,3,0.00
2013-10-20,59.0,48.4,34.5,44.3,37.3,26.7,97,70,31,30.13,29.94,5,1,7,0.00
2013-10-21,60.9,44.4,37.4,50.1,42.4,36.9,99,93,62,30.17,30.03,11,1,11,0.00
2013-10-22,62.5,54.7,45.0,48.4,46.8,44.5,99,76,53,30.04,29.83,7,1,13,0.00
2013-10-23,47.6,41.9,32.2,46.1,37.4,28.3,97,84,65,30.04,29.73,5,1,20,0.07
2013-10-24,43.4,34.2,28.4,34.6,30.2,26.6,94,86,67,30.23,30.03,10,1,10,41.32
2013-10-25,34.5,30.4,24.5,33.6,26.9,23.0,97,86,76,30.43,30.23,8,1,15,0.01
2013-10-26,51.2,35.1,19.8,37.6,27.1,18.8,97,76,34,30.42,30.15,9,1,10,0.01
2013-10-30,69.1,58.2,51.4,57.1,52.7,49.3,98,83,59,30.28,30.16,12,0,13,0.01
2013-10-31,63.1,58.2,52.2,57.4,53.2,50.1,98,84,68,30.17,29.83,16,1,18,0.00
2013-11-1,67.9,58.4,48.4,57.8,48.5,43.6,97,71,51,29.77,29.62,22,1,22,0.08
2013-11-2,53.4,45.8,39.1,44.7,39.7,33.8,95,80,57,30.04,29.73,8,0,9,0.00
2013-11-3,48.4,40.5,32.1,38.1,34.0,29.8,93,78,56,30.42,30.02,10,1,13,0.00
2013-11-4,50.3,39.3,30.9,31.7,29.4,25.5,95,70,43,30.57,30.41,11,1,13,0.00
2013-11-5,52.9,42.3,31.0,46.6,32.4,17.0,96,72,25,30.57,30.44,11,1,12,0.00
2013-11-6,58.4,51.2,45.1,50.5,47.9,44.6,99,89,71,30.44,30.12,10,1,13,0.01
2013-11-7,56.2,44.9,33.2,55.3,42.6,30.0,99,91,80,30.15,29.99,12,1,12,0.11
2013-11-8,43.6,35.6,29.7,30.0,26.6,20.0,89,71,39,30.35,30.15,10,1,11,0.00
2013-11-9,53.3,38.8,26.1,28.0,25.3,21.4,91,63,29,30.41,30.28,8,2,8,0.00
2013-11-10,55.4,42.9,33.9,39.4,31.6,25.1,85,66,43,30.31,30.20,10,1,13,0.00
2013-11-11,57.4,39.4,24.3,28.8,24.0,14.5,87,59,21,30.37,30.23,9,0,10,0.00
2013-11-12,45.6,33.7,0.0,37.0,26.7,13.5,90,75,55,30.49,30.14,13,1,14,0.00
2013-11-13,34.4,25.0,18.6,20.6,16.7,14.2,85,71,48,30.63,30.48,10,1,14,0.00
2013-11-14,49.6,31.7,16.3,24.6,18.2,13.8,92,63,25,30.60,30.40,9,1,9,0.00
2013-11-15,56.2,38.6,25.6,45.4,32.5,19.9,98,80,42,30.42,30.26,7,0,10,0.15
2013-11-16,53.9,47.8,42.9,51.4,46.9,42.4,99,97,90,30.29,30.18,7,0,12,0.01
2013-11-17,60.7,55.5,52.1,56.4,52.9,50.2,98,91,76,30.19,29.85,12,1,18,0.14
2013-11-18,56.8,49.2,38.6,56.5,42.8,26.0,99,80,49,30.01,29.81,10,1,14,0.08
2013-11-19,44.9,36.7,30.7,29.5,26.1,20.4,82,66,39,30.31,30.01,9,1,11,0.00
2013-11-20,44.3,35.1,28.4,28.4,26.1,23.2,86,71,44,30.50,30.30,12,1,12,0.00
2013-11-21,55.9,44.5,31.5,49.2,41.3,27.3,97,89,70,30.53,30.40,14,1,14,0.00
2013-11-22,63.0,53.8,46.3,55.0,51.4,45.3,99,92,71,30.41,30.12,9,0,11,0.19
2013-11-23,51.6,40.6,26.7,51.1,37.1,18.2,98,87,69,30.21,30.08,10,1,12,0.09
2013-11-24,26.7,20.9,15.2,18.6,10.1,2.8,81,64,40,30.58,30.21,15,2,19,0.00
2013-11-25,33.1,25.4,15.1,26.0,11.9,5.9,91,58,34,30.59,30.37,6,0,7,0.00
2013-11-26,43.0,38.7,28.1,42.5,38.0,25.3,99,97,89,30.37,29.70,7,0,8,2.60
2013-11-27,40.4,25.8,18.1,40.1,23.9,13.4,99,92,81,30.23,29.67,15,2,20,0.13
2013-11-28,37.5,23.4,11.7,30.0,19.4,9.8,96,85,52,30.57,30.23,12,0,12,0.03
2013-11-29,43.9,30.1,20.5,32.0,24.1,18.5,97,80,47,30.67,30.57,9,0,9,0.09
2013-11-30,39.9,29.6,23.7,28.6,24.0,21.2,91,80,55,30.66,30.41,10,1,11,0.01
2013-12-1,47.5,31.5,20.6,34.4,26.8,19.3,96,84,54,30.42,30.13,9,0,10,0.03
2013-12-2,48.4,35.2,25.4,40.1,32.1,24.7,98,89,66,30.13,29.89,3,0,3,0.00
2013-12-3,55.7,45.0,37.2,47.9,42.0,35.8,98,90,68,29.97,29.89,8,1,11,0.01
2013-12-4,58.4,48.2,40.9,52.5,46.6,40.4,99,94,78,30.08,29.95,9,1,10,0.00
2013-12-5,66.3,53.7,48.3,58.0,52.0,47.5,99,94,72,30.08,29.97,9,1,10,0.10
2013-12-6,66.7,59.6,49.4,62.5,57.5,48.9,100,93,78,30.01,29.88,12,1,14,0.47
2013-12-7,49.5,39.0,35.5,48.9,38.2,34.3,98,97,93,30.40,29.97,10,1,12,0.02
2013-12-8,38.3,33.0,30.2,38.0,32.5,29.5,99,98,96,30.40,30.20,14,1,15,0.25
2013-12-9,54.5,46.3,37.6,52.0,45.4,37.1,100,97,89,30.21,30.02,14,1,16,0.10
2013-12-10,44.9,33.7,21.8,44.9,32.0,19.6,100,93,80,30.35,29.92,12,1,13,0.36
2013-12-11,43.4,28.1,18.4,29.9,21.0,14.4,96,77,32,30.52,30.33,7,0,9,0.00
2013-12-12,29.2,24.6,18.5,20.7,16.8,14.6,89,73,55,30.46,30.37,13,1,14,0.00
2013-12-13,41.1,28.9,17.6,28.2,20.5,12.6,91,72,43,30.47,30.32,6,0,8,0.00
2013-12-14,38.8,36.0,33.0,38.2,32.4,22.7,99,87,59,30.34,29.80,7,0,8,0.55
2013-12-15,42.4,31.6,26.9,42.1,30.1,24.8,99,94,90,30.14,29.78,9,1,10,0.07
2013-12-16,42.3,30.9,25.1,36.4,28.5,24.1,97,91,66,30.27,30.12,7,1,8,0.02
2013-12-17,48.1,36.6,28.6,37.3,31.5,23.2,97,83,59,30.21,29.99,13,1,16,0.06
2013-12-18,34.8,28.4,23.6,23.5,20.0,15.1,89,72,46,30.37,30.12,11,1,15,0.00
2013-12-19,55.9,35.6,21.7,37.5,27.4,19.0,95,74,35,30.43,30.26,4,0,8,0.01
2013-12-20,60.7,44.6,33.2,42.6,33.6,25.7,82,66,35,30.27,30.12,7,0,10,0.00
2013-12-21,63.4,54.8,42.9,58.6,51.7,37.5,97,90,78,30.15,29.90,21,2,21,0.08
2013-12-22,61.2,55.3,51.9,58.6,54.3,51.4,99,96,89,30.04,29.90,13,1,16,1.81
2013-12-23,53.8,42.5,30.6,53.5,41.4,28.0,99,96,90,30.21,29.98,7,1,10,0.41
2013-12-24,30.6,24.9,16.5,28.6,20.7,13.4,92,84,72,30.49,30.20,11,1,11,0.00
2013-12-25,32.4,22.5,14.3,20.8,13.4,2.0,95,71,36,30.58,30.42,10,1,11,0.00
2013-12-26,38.5,27.2,17.9,28.3,21.2,15.2,94,79,61,30.47,30.37,11,1,12,0.00
2013-12-27,42.8,27.6,19.1,27.4,22.7,17.9,97,82,44,30.56,30.45,8,0,8,0.00
2013-12-28,47.7,33.5,19.1,40.7,28.1,17.9,98,83,42,30.51,30.18,4,0,8,0.21
2013-12-29,45.3,39.7,35.9,44.0,38.4,34.2,99,95,87,30.18,29.81,10,1,13,0.52
2013-12-30,37.2,34.1,30.2,36.1,33.3,29.8,99,97,90,30.20,29.98,4,0,7,0.03
2013-12-31,32.3,27.9,21.3,30.1,24.3,20.0,99,87,64,30.45,30.17,10,1,12,0.00
2014-1-1,40.9,29.3,20.5,29.5,24.6,19.3,97,84,50,30.45,30.19,7,0,7,0.00
2014-1-2,40.0,32.0,26.7,39.4,30.3,24.6,98,93,86,30.19,29.71,11,0,13,0.13